This is the latest recevied weather packets stored in our database for station/object JA6CFI-13. If no packets are shown the sender has not sent any weather packets the latest 10 day(s).
| Time | Temp. | Humidity | Pressure | Rain* | Wind** | Luminosity | Snow |
|---|---|---|---|---|---|---|---|
| 1777565606 | 14.44° C | 97% | 1007.1 hPa | 0.76 mm | - | - | - |
| 1777564826 | 14.44° C | 97% | 1007.1 hPa | 0.51 mm | - | - | - |
| 1777564045 | 14.44° C | 96% | 1007.2 hPa | 0 mm | - | - | - |
| 1777563267 | 14.44° C | 96% | 1007.3 hPa | 0 mm | - | - | - |
| 1777562487 | 14.44° C | 96% | 1007.4 hPa | 0 mm | - | - | - |
| 1777561706 | 14.44° C | 96% | 1007.5 hPa | 0 mm | - | - | - |
| 1777560926 | 14.44° C | 96% | 1007.5 hPa | 1.52 mm | - | - | - |
| 1777560146 | 14.44° C | 96% | 1007.7 hPa | 1.52 mm | - | - | - |
| 1777559367 | 14.44° C | 96% | 1007.8 hPa | 1.27 mm | - | - | - |
| 1777558586 | 14.44° C | 96% | 1008 hPa | 1.02 mm | - | - | - |
| 1777557806 | 14.44° C | 96% | 1008.1 hPa | 0.76 mm | - | - | - |
| 1777557026 | 14.44° C | 96% | 1008.2 hPa | 0.25 mm | - | - | - |
| 1777556247 | 14.44° C | 95% | 1008.2 hPa | 0.25 mm | - | - | - |
| 1777555467 | 14.44° C | 95% | 1008.4 hPa | 0.51 mm | - | - | - |
| 1777554686 | 14.44° C | 95% | 1008.6 hPa | 0.51 mm | - | - | - |
| 1777553906 | 14.44° C | 95% | 1008.8 hPa | 0.76 mm | - | - | - |
| 1777553125 | 14.44° C | 95% | 1008.7 hPa | 0.76 mm | - | - | - |
| 1777552347 | 14.44° C | 95% | 1008.8 hPa | 0.76 mm | - | - | - |
| 1777551566 | 14.44° C | 94% | 1008.9 hPa | 0.51 mm | - | - | - |
| 1777550786 | 14.44° C | 94% | 1009.1 hPa | 0.51 mm | - | - | - |
| 1777550005 | 14.44° C | 94% | 1009.2 hPa | 0.25 mm | - | - | - |
| 1777549227 | 14.44° C | 93% | 1009.2 hPa | 0.51 mm | - | - | - |
| 1777548446 | 14.44° C | 93% | 1009.3 hPa | 0.51 mm | - | - | - |
| 1777547666 | 14.44° C | 93% | 1009.2 hPa | 0.25 mm | - | - | - |
| 1777546886 | 14.44° C | 93% | 1009.2 hPa | 0.25 mm | - | - | - |
* Rain latest hour (hover to see other rain measurements)
** Current wind speed in m/s (hover to see current wind gust speed)